MLP319 GCTS-LIMC

Flight info

Callsign MLP319
Flight time 3h 36m
Altitude 36000
Route KORAL UG5 SONSO DCT NIRAL UN871 OSDAM UM985 BARPA DCT XAVIR DCT PIMOS DCT RIXUR DCT UNTOS DCT ROLAS DCT TOSGA DCT RESTU DCT ALT DCT SUMMO DCT MITOS DCT BRUNO DCT RUXET DCT IZA DCT TUKRO DCT ASMOT N851 ISTER DCT NIVDA DCT OMEDA DCT RAPUR/N0400F300 DCT TORTU DCT ANAKI P860 DEVOX
Aircraft A21N/M-SDE2E3FGHIRWXY/LB1

Departure

Time 2026-05-04 12:44
Airport Tenerife Sur Airport (GCTS)

Arrival

Time 2026-05-04 16:21
Airport Milan Malpensa International Airport (LIMC)
Time Latitude Longitude Altitude Speed Heading
2026-05-04 12:15 28.04712 -16.57683 211 ft 0 kts 338°
2026-05-04 12:31 28.04701 -16.57678 216 ft 3 kts 335°
2026-05-04 12:32 28.04683 -16.57667 221 ft 3 kts 327°
2026-05-04 12:32 28.04658 -16.57636 219 ft 4 kts 279°
2026-05-04 12:32 28.04658 -16.57623 220 ft 3 kts 249°
2026-05-04 12:33 28.04658 -16.57622 219 ft 2 kts 249°
2026-05-04 12:38 28.04656 -16.57629 221 ft 3 kts 249°
2026-05-04 12:39 28.04643 -16.57666 214 ft 7 kts 248°
2026-05-04 12:39 28.04615 -16.57714 211 ft 8 kts 216°
2026-05-04 12:39 28.04552 -16.57712 219 ft 10 kts 162°
2026-05-04 12:39 28.04481 -16.57723 213 ft 12 kts 226°
2026-05-04 12:40 28.04445 -16.57809 212 ft 13 kts 248°
2026-05-04 12:40 28.04410 -16.57907 212 ft 14 kts 248°
2026-05-04 12:40 28.04374 -16.58013 216 ft 15 kts 249°
2026-05-04 12:40 28.04332 -16.58126 207 ft 16 kts 242°
2026-05-04 12:41 28.04283 -16.58244 215 ft 17 kts 248°
2026-05-04 12:41 28.04238 -16.58372 209 ft 18 kts 248°
2026-05-04 12:41 28.04193 -16.58507 205 ft 19 kts 253°
2026-05-04 12:41 28.04150 -16.58651 204 ft 20 kts 249°
2026-05-04 12:42 28.04099 -16.58798 205 ft 20 kts 249°
2026-05-04 12:42 28.04054 -16.58936 205 ft 10 kts 250°
2026-05-04 12:42 28.04035 -16.58975 202 ft 2 kts 224°
2026-05-04 12:42 28.04012 -16.58990 202 ft 5 kts 197°
2026-05-04 12:43 28.03966 -16.58977 202 ft 9 kts 144°
2026-05-04 12:43 28.03922 -16.58912 210 ft 12 kts 119°
2026-05-04 12:43 28.03907 -16.58809 203 ft 15 kts 82°
2026-05-04 12:43 28.03944 -16.58691 207 ft 17 kts 68°
2026-05-04 12:44 28.04047 -16.58394 212 ft 75 kts 69°
2026-05-04 12:44 28.04321 -16.57612 211 ft 136 kts 68°
2026-05-04 12:44 28.04727 -16.56480 359 ft 163 kts 69°
2026-05-04 12:44 28.05140 -16.55304 1001 ft 158 kts 73°
2026-05-04 12:45 28.05485 -16.54124 1625 ft 162 kts 71°
2026-05-04 12:45 28.05945 -16.52873 1980 ft 181 kts 69°
2026-05-04 12:45 28.06434 -16.51514 2452 ft 196 kts 68°
2026-05-04 12:45 28.07038 -16.50061 2961 ft 211 kts 63°
2026-05-04 12:46 28.07737 -16.48495 3318 ft 234 kts 62°
2026-05-04 12:46 28.08505 -16.46777 3801 ft 253 kts 62°
2026-05-04 12:46 28.09309 -16.44968 4525 ft 261 kts 62°
2026-05-04 12:46 28.10134 -16.43111 5301 ft 266 kts 63°
2026-05-04 12:47 28.10975 -16.41219 6056 ft 272 kts 63°
2026-05-04 12:47 28.11834 -16.39283 6786 ft 277 kts 62°
2026-05-04 12:47 28.12709 -16.37315 7479 ft 282 kts 62°
2026-05-04 12:47 28.13598 -16.35305 8157 ft 287 kts 63°
2026-05-04 12:48 28.14500 -16.33264 8812 ft 292 kts 63°
2026-05-04 12:48 28.15421 -16.31185 9456 ft 297 kts 62°
2026-05-04 12:48 28.16343 -16.29107 10050 ft 302 kts 62°
2026-05-04 12:48 28.17314 -16.26913 10490 ft 316 kts 62°
2026-05-04 12:49 28.18312 -16.24653 10777 ft 333 kts 62°
2026-05-04 12:49 28.19391 -16.22215 11073 ft 351 kts 62°
2026-05-04 12:49 28.20508 -16.19690 11455 ft 363 kts 62°
2026-05-04 12:49 28.21630 -16.17143 12036 ft 369 kts 62°
2026-05-04 12:50 28.22786 -16.14519 12647 ft 375 kts 62°
2026-05-04 12:50 28.23957 -16.11863 13287 ft 379 kts 62°
2026-05-04 12:50 28.25140 -16.09183 13937 ft 382 kts 62°
2026-05-04 12:50 28.26338 -16.06471 14564 ft 386 kts 62°
2026-05-04 12:51 28.27546 -16.03726 15199 ft 390 kts 62°
2026-05-04 12:51 28.28753 -16.00961 15830 ft 393 kts 62°
2026-05-04 12:51 28.29980 -15.98169 16442 ft 397 kts 62°
2026-05-04 12:51 28.31218 -15.95351 17045 ft 401 kts 62°
2026-05-04 12:52 28.32463 -15.92507 17617 ft 404 kts 62°
2026-05-04 12:52 28.33723 -15.89635 18183 ft 408 kts 63°
2026-05-04 12:52 28.34979 -15.86735 18740 ft 412 kts 63°
2026-05-04 12:52 28.36250 -15.83796 19257 ft 417 kts 63°
2026-05-04 12:53 28.37537 -15.80832 19741 ft 421 kts 63°
2026-05-04 12:53 28.38846 -15.77820 20238 ft 426 kts 63°
2026-05-04 12:53 28.40166 -15.74788 20684 ft 431 kts 63°
2026-05-04 12:53 28.41502 -15.71729 21141 ft 435 kts 63°
2026-05-04 12:54 28.42848 -15.68638 21586 ft 439 kts 63°
2026-05-04 12:54 28.44193 -15.65547 22028 ft 444 kts 63°
2026-05-04 12:54 28.45581 -15.62348 22457 ft 448 kts 63°
2026-05-04 12:54 28.46948 -15.59202 22868 ft 452 kts 63°
2026-05-04 12:55 28.48342 -15.55990 23277 ft 456 kts 63°
2026-05-04 12:55 28.49759 -15.52744 23678 ft 460 kts 63°
2026-05-04 12:55 28.51183 -15.49473 24081 ft 463 kts 63°
2026-05-04 12:55 28.52613 -15.46168 24475 ft 466 kts 63°
2026-05-04 12:56 28.54046 -15.42847 24845 ft 470 kts 63°
2026-05-04 12:56 28.55494 -15.39501 25205 ft 473 kts 63°
2026-05-04 12:56 28.56966 -15.36127 25567 ft 477 kts 63°
2026-05-04 12:56 28.58437 -15.32750 25899 ft 480 kts 63°
2026-05-04 12:57 28.59922 -15.29316 26253 ft 483 kts 63°
2026-05-04 12:57 28.61398 -15.25882 26609 ft 486 kts 63°
2026-05-04 12:57 28.62884 -15.22438 26937 ft 488 kts 63°
2026-05-04 12:57 28.64395 -15.18949 27247 ft 492 kts 63°
2026-05-04 12:58 28.65902 -15.15438 27563 ft 494 kts 63°
2026-05-04 12:58 28.67413 -15.11905 27867 ft 497 kts 63°
2026-05-04 12:58 28.68930 -15.08363 28167 ft 499 kts 63°
2026-05-04 12:58 28.70438 -15.04849 28437 ft 501 kts 63°
2026-05-04 12:59 28.71969 -15.01269 28700 ft 504 kts 63°
2026-05-04 12:59 28.73507 -14.97665 28964 ft 507 kts 63°
2026-05-04 12:59 28.75057 -14.94057 29249 ft 509 kts 63°
2026-05-04 12:59 28.76625 -14.90418 29520 ft 511 kts 63°
2026-05-04 13:00 28.78199 -14.86786 29770 ft 513 kts 63°
2026-05-04 13:00 28.79780 -14.83122 30015 ft 516 kts 63°
2026-05-04 13:00 28.81357 -14.79440 30247 ft 518 kts 63°
2026-05-04 13:00 28.82935 -14.75737 30502 ft 520 kts 63°
2026-05-04 13:01 28.84520 -14.72011 30730 ft 522 kts 63°
2026-05-04 13:01 28.86107 -14.68280 30952 ft 524 kts 63°
2026-05-04 13:01 28.87691 -14.64528 31155 ft 526 kts 63°
2026-05-04 13:01 28.89285 -14.60753 31374 ft 528 kts 63°
2026-05-04 13:02 28.90881 -14.56978 31568 ft 530 kts 63°
2026-05-04 13:02 28.92471 -14.53237 31780 ft 531 kts 63°
2026-05-04 13:02 28.94089 -14.49436 32021 ft 531 kts 63°
2026-05-04 13:02 28.95690 -14.45641 32280 ft 531 kts 63°
2026-05-04 13:03 28.97298 -14.41841 32517 ft 531 kts 63°
2026-05-04 13:03 28.98909 -14.38029 32750 ft 531 kts 63°
2026-05-04 13:03 29.00514 -14.34231 32959 ft 531 kts 63°
2026-05-04 13:03 29.02117 -14.30421 33174 ft 531 kts 63°
2026-05-04 13:04 29.03714 -14.26616 33367 ft 531 kts 63°
2026-05-04 13:04 29.05313 -14.22798 33558 ft 532 kts 64°
2026-05-04 13:04 29.06900 -14.18979 33738 ft 532 kts 64°
2026-05-04 13:04 29.08491 -14.15161 33903 ft 533 kts 64°
2026-05-04 13:05 29.10084 -14.11336 34067 ft 533 kts 63°
2026-05-04 13:05 29.11684 -14.07509 34236 ft 533 kts 63°
2026-05-04 13:05 29.13286 -14.03691 34395 ft 533 kts 63°
2026-05-04 13:05 29.14883 -13.99862 34583 ft 532 kts 63°
2026-05-04 13:06 29.16461 -13.96083 34747 ft 532 kts 63°
2026-05-04 13:06 29.18050 -13.92267 34908 ft 532 kts 63°
2026-05-04 13:06 29.19646 -13.88454 35073 ft 531 kts 63°
2026-05-04 13:06 29.21253 -13.84649 35240 ft 531 kts 63°
2026-05-04 13:07 29.22853 -13.80837 35386 ft 530 kts 63°
2026-05-04 13:07 29.24434 -13.77024 35528 ft 530 kts 63°
2026-05-04 13:07 29.26009 -13.73203 35664 ft 530 kts 63°
2026-05-04 13:07 29.27584 -13.69389 35791 ft 530 kts 63°
2026-05-04 13:08 29.29169 -13.65557 35913 ft 529 kts 63°
2026-05-04 13:08 29.30725 -13.61792 36035 ft 529 kts 63°
2026-05-04 13:08 29.32297 -13.57982 36119 ft 528 kts 63°
2026-05-04 13:09 29.35430 -13.50390 36100 ft 526 kts 63°
2026-05-04 13:09 29.38560 -13.42804 36083 ft 526 kts 63°
2026-05-04 13:10 29.41695 -13.35218 36085 ft 526 kts 63°
2026-05-04 13:10 29.44290 -13.28898 36081 ft 526 kts 63°
2026-05-04 13:11 29.47897 -13.20065 36078 ft 525 kts 63°
2026-05-04 13:11 29.50489 -13.13697 36078 ft 525 kts 63°
2026-05-04 13:12 29.53588 -13.06104 36072 ft 525 kts 63°
2026-05-04 13:12 29.56667 -12.98566 36071 ft 524 kts 63°
2026-05-04 13:13 29.59758 -12.90975 36072 ft 524 kts 63°
2026-05-04 13:13 29.62826 -12.83381 36073 ft 523 kts 63°
2026-05-04 13:14 29.65879 -12.75798 36066 ft 523 kts 63°
2026-05-04 13:14 29.68938 -12.68206 36059 ft 522 kts 63°
2026-05-04 13:15 29.71970 -12.60678 36060 ft 522 kts 63°
2026-05-04 13:15 29.75638 -12.53510 36058 ft 518 kts 52°
2026-05-04 13:16 29.79713 -12.46662 36061 ft 517 kts 52°
2026-05-04 13:16 29.83766 -12.39816 36053 ft 517 kts 52°
2026-05-04 13:17 29.87804 -12.32951 36058 ft 517 kts 52°
2026-05-04 13:17 29.91839 -12.26107 36047 ft 516 kts 52°
2026-05-04 13:18 29.95873 -12.19256 36046 ft 516 kts 52°
2026-05-04 13:18 29.99922 -12.12414 36052 ft 516 kts 51°
2026-05-04 13:19 30.04630 -12.06278 36056 ft 508 kts 39°
2026-05-04 13:19 30.09735 -12.00632 36049 ft 508 kts 38°
2026-05-04 13:20 30.14834 -11.94956 36043 ft 509 kts 39°
2026-05-04 13:20 30.19879 -11.89306 36045 ft 508 kts 39°
2026-05-04 13:21 30.24963 -11.83620 36037 ft 509 kts 39°
2026-05-04 13:21 30.30045 -11.77892 36049 ft 509 kts 39°
2026-05-04 13:22 30.35113 -11.72176 36048 ft 509 kts 39°
2026-05-04 13:22 30.40185 -11.66464 36044 ft 508 kts 39°
2026-05-04 13:23 30.45215 -11.60704 36040 ft 508 kts 40°
2026-05-04 13:23 30.50218 -11.55002 36049 ft 508 kts 39°
2026-05-04 13:24 30.55296 -11.49303 36036 ft 507 kts 39°
2026-05-04 13:24 30.60357 -11.43606 36032 ft 507 kts 39°
2026-05-04 13:25 30.67912 -11.35000 36031 ft 507 kts 39°
2026-05-04 13:25 30.72957 -11.29265 36031 ft 506 kts 39°
2026-05-04 13:26 30.77986 -11.23534 36021 ft 506 kts 39°
2026-05-04 13:26 30.83002 -11.17796 36021 ft 506 kts 40°
2026-05-04 13:27 30.88014 -11.12046 36021 ft 506 kts 40°
2026-05-04 13:27 30.93023 -11.06294 36020 ft 505 kts 39°
2026-05-04 13:28 30.98033 -11.00556 36021 ft 506 kts 39°
2026-05-04 13:28 31.03011 -10.94838 36020 ft 505 kts 40°
2026-05-04 13:29 31.07998 -10.89084 36021 ft 505 kts 40°
2026-05-04 13:29 31.12992 -10.83328 36020 ft 504 kts 40°
2026-05-04 13:30 31.17981 -10.77561 36018 ft 504 kts 40°
2026-05-04 13:30 31.22968 -10.71794 36020 ft 504 kts 40°
2026-05-04 13:31 31.27942 -10.66014 36020 ft 504 kts 40°
2026-05-04 13:31 31.32884 -10.60266 36020 ft 504 kts 40°
2026-05-04 13:32 31.37849 -10.54483 36019 ft 504 kts 40°
2026-05-04 13:32 31.42817 -10.48684 36020 ft 503 kts 40°
2026-05-04 13:33 31.47789 -10.42915 36020 ft 503 kts 40°
2026-05-04 13:33 31.52749 -10.37113 36020 ft 503 kts 41°
2026-05-04 13:34 31.57698 -10.31315 36029 ft 502 kts 40°
2026-05-04 13:34 31.62621 -10.25566 36031 ft 502 kts 41°
2026-05-04 13:35 31.70030 -10.16852 36027 ft 502 kts 41°
2026-05-04 13:36 31.74974 -10.11042 36029 ft 502 kts 41°
2026-05-04 13:36 31.79909 -10.05231 36030 ft 502 kts 41°
2026-05-04 13:37 31.84800 -9.99442 36030 ft 501 kts 41°
2026-05-04 13:37 31.89718 -9.93632 36030 ft 501 kts 41°
2026-05-04 13:38 31.94633 -9.87802 36029 ft 501 kts 41°
2026-05-04 13:38 31.99552 -9.81978 36030 ft 501 kts 41°
2026-05-04 13:39 32.04359 -9.76256 36029 ft 501 kts 41°
2026-05-04 13:39 32.09001 -9.70708 36024 ft 501 kts 41°
2026-05-04 13:40 32.13918 -9.64863 36031 ft 501 kts 41°
2026-05-04 13:40 32.18826 -9.59020 36036 ft 502 kts 41°
2026-05-04 13:41 32.23733 -9.53135 36046 ft 502 kts 41°
2026-05-04 13:41 32.28595 -9.47288 36038 ft 502 kts 41°
2026-05-04 13:42 32.35968 -9.38481 36038 ft 502 kts 41°
2026-05-04 13:42 32.40868 -9.32575 36052 ft 503 kts 41°
2026-05-04 13:43 32.45773 -9.26665 36048 ft 503 kts 41°
2026-05-04 13:43 32.50675 -9.20746 36053 ft 504 kts 41°
2026-05-04 13:44 32.55581 -9.14804 36051 ft 504 kts 41°
2026-05-04 13:44 32.60479 -9.08864 36061 ft 504 kts 41°
2026-05-04 13:45 32.65390 -9.02921 36061 ft 504 kts 41°
2026-05-04 13:45 32.70275 -8.97008 36060 ft 504 kts 41°
2026-05-04 13:46 32.74885 -8.91381 35988 ft 504 kts 42°
2026-05-04 13:46 32.79768 -8.85381 36054 ft 504 kts 42°
2026-05-04 13:47 32.84671 -8.79393 36102 ft 503 kts 41°
2026-05-04 13:47 32.89529 -8.73460 36110 ft 503 kts 41°
2026-05-04 13:48 32.94429 -8.67457 36119 ft 506 kts 42°
2026-05-04 13:48 32.99323 -8.61496 36087 ft 504 kts 42°
2026-05-04 13:49 33.04235 -8.55492 36037 ft 505 kts 42°
2026-05-04 13:49 33.09098 -8.49492 36073 ft 505 kts 42°
2026-05-04 13:50 33.13961 -8.43483 36242 ft 504 kts 41°
2026-05-04 13:50 33.18897 -8.37436 36170 ft 505 kts 38°
2026-05-04 13:51 33.21567 -8.34802 36063 ft 496 kts 25°
2026-05-04 13:51 33.24529 -8.32821 36050 ft 488 kts 18°
2026-05-04 13:51 33.30526 -8.28859 36169 ft 497 kts 29°
2026-05-04 13:52 33.39116 -8.21823 36114 ft 495 kts 25°
2026-05-04 13:53 33.44935 -8.17476 36124 ft 496 kts 24°
2026-05-04 13:53 33.50813 -8.13077 36089 ft 497 kts 25°
2026-05-04 13:54 33.59567 -8.06394 36133 ft 497 kts 26°
2026-05-04 13:55 33.68342 -7.99748 36170 ft 498 kts 26°
2026-05-04 13:55 33.77076 -7.93088 36212 ft 492 kts 27°
2026-05-04 13:56 33.82853 -7.88693 36184 ft 495 kts 26°
2026-05-04 13:57 33.91600 -7.81970 36160 ft 499 kts 26°
2026-05-04 13:58 34.03320 -7.72986 36124 ft 499 kts 27°
2026-05-04 13:58 34.11125 -7.66994 36123 ft 498 kts 25°
2026-05-04 13:59 34.16936 -7.62510 36157 ft 498 kts 26°
2026-05-04 14:00 34.25729 -7.55709 36153 ft 498 kts 27°
2026-05-04 14:00 34.34436 -7.48968 36126 ft 496 kts 27°
2026-05-04 14:01 34.40242 -7.44443 36121 ft 499 kts 28°
2026-05-04 14:02 34.49002 -7.37655 36120 ft 498 kts 27°
2026-05-04 14:02 34.54811 -7.33125 36174 ft 499 kts 27°
2026-05-04 14:03 34.60646 -7.28549 36170 ft 496 kts 26°
2026-05-04 14:03 34.66425 -7.24040 36137 ft 493 kts 26°
2026-05-04 14:04 34.75106 -7.17238 36231 ft 497 kts 26°
2026-05-04 14:04 34.80906 -7.12659 36218 ft 500 kts 27°
2026-05-04 14:05 34.89681 -7.05764 36080 ft 498 kts 26°
2026-05-04 14:06 34.95462 -7.01211 36084 ft 497 kts 26°
2026-05-04 14:06 35.01256 -6.96641 36132 ft 497 kts 25°
2026-05-04 14:07 35.07082 -6.92038 36135 ft 499 kts 27°
2026-05-04 14:07 35.12912 -6.87390 36029 ft 499 kts 27°
2026-05-04 14:08 35.18695 -6.82802 36059 ft 499 kts 28°
2026-05-04 14:08 35.24537 -6.78156 36055 ft 499 kts 27°
2026-05-04 14:09 35.33178 -6.71154 36082 ft 503 kts 33°
2026-05-04 14:09 35.35764 -6.68163 36013 ft 511 kts 49°
2026-05-04 14:10 35.39058 -6.60500 36009 ft 515 kts 69°
2026-05-04 14:10 35.42160 -6.52590 36026 ft 511 kts 52°
2026-05-04 14:11 35.46535 -6.45772 36090 ft 511 kts 50°
2026-05-04 14:11 35.52051 -6.34511 36123 ft 513 kts 56°
2026-05-04 14:12 35.55745 -6.27058 36059 ft 514 kts 54°
2026-05-04 14:13 35.61442 -6.15899 36022 ft 513 kts 55°
2026-05-04 14:13 35.65196 -6.08396 36037 ft 513 kts 57°
2026-05-04 14:14 35.68931 -6.00931 36124 ft 512 kts 55°
2026-05-04 14:14 35.74445 -5.89670 36112 ft 515 kts 62°
2026-05-04 14:15 35.80567 -5.73729 36108 ft 515 kts 63°
2026-05-04 14:16 35.85249 -5.61898 36101 ft 513 kts 62°
2026-05-04 14:17 35.90058 -5.50080 36068 ft 513 kts 63°
2026-05-04 14:18 35.94837 -5.38249 36081 ft 513 kts 63°
2026-05-04 14:19 36.01183 -5.22515 36089 ft 514 kts 62°
2026-05-04 14:19 36.04500 -5.14623 36162 ft 516 kts 62°
2026-05-04 14:20 36.07782 -5.06812 36170 ft 511 kts 60°
2026-05-04 14:20 36.11031 -4.99008 36132 ft 507 kts 61°
2026-05-04 14:21 36.16213 -4.87556 36020 ft 510 kts 46°
2026-05-04 14:21 36.20307 -4.82666 36000 ft 503 kts 35°
2026-05-04 14:22 36.25265 -4.76449 36031 ft 509 kts 44°
2026-05-04 14:22 36.30049 -4.69991 36021 ft 508 kts 43°
2026-05-04 14:23 36.37366 -4.60487 36012 ft 508 kts 42°
2026-05-04 14:24 36.42253 -4.54138 36011 ft 508 kts 43°
2026-05-04 14:24 36.47124 -4.47786 36004 ft 508 kts 43°
2026-05-04 14:25 36.51977 -4.41467 35999 ft 508 kts 43°
2026-05-04 14:25 36.59299 -4.31902 36006 ft 509 kts 43°
2026-05-04 14:26 36.64168 -4.25511 35997 ft 509 kts 43°
2026-05-04 14:26 36.69044 -4.19113 35998 ft 509 kts 43°
2026-05-04 14:27 36.73917 -4.12700 35996 ft 509 kts 43°
2026-05-04 14:27 36.78776 -4.06279 35998 ft 509 kts 43°
2026-05-04 14:28 36.83639 -3.99863 36006 ft 510 kts 43°
2026-05-04 14:28 36.88517 -3.93432 36014 ft 510 kts 43°
2026-05-04 14:29 36.98220 -3.80557 36027 ft 510 kts 44°
2026-05-04 14:30 37.03078 -3.74085 36023 ft 510 kts 43°
2026-05-04 14:31 37.10278 -3.64270 36042 ft 512 kts 49°
2026-05-04 14:31 37.13849 -3.56532 36049 ft 515 kts 64°
2026-05-04 14:32 37.16943 -3.48424 36049 ft 515 kts 64°
2026-05-04 14:32 37.20103 -3.40358 36055 ft 515 kts 63°
2026-05-04 14:33 37.23264 -3.32346 36036 ft 515 kts 63°
2026-05-04 14:33 37.26428 -3.24286 36038 ft 515 kts 63°
2026-05-04 14:34 37.29588 -3.16188 36032 ft 515 kts 64°
2026-05-04 14:34 37.32753 -3.08107 36025 ft 515 kts 64°
2026-05-04 14:35 37.35906 -3.00030 36017 ft 515 kts 64°
2026-05-04 14:35 37.39037 -2.91965 36011 ft 515 kts 64°
2026-05-04 14:36 37.42161 -2.83867 35998 ft 515 kts 64°
2026-05-04 14:36 37.45288 -2.75759 35991 ft 514 kts 64°
2026-05-04 14:37 37.48408 -2.67652 35987 ft 514 kts 64°
2026-05-04 14:37 37.51527 -2.59542 35981 ft 514 kts 64°
2026-05-04 14:38 37.54634 -2.51430 35976 ft 513 kts 65°
2026-05-04 14:38 37.57741 -2.43334 35969 ft 513 kts 65°
2026-05-04 14:39 37.60837 -2.35217 35963 ft 513 kts 65°
2026-05-04 14:39 37.63910 -2.27147 35951 ft 513 kts 65°
2026-05-04 14:40 37.68538 -2.14972 35936 ft 514 kts 65°
2026-05-04 14:40 37.71629 -2.06836 35923 ft 514 kts 65°
2026-05-04 14:41 37.74700 -1.98698 35921 ft 513 kts 66°
2026-05-04 14:42 37.80821 -1.82389 35902 ft 513 kts 66°
2026-05-04 14:42 37.83865 -1.74258 35908 ft 513 kts 66°
2026-05-04 14:43 37.86913 -1.66105 35908 ft 513 kts 66°
2026-05-04 14:43 37.89955 -1.57934 35907 ft 513 kts 65°
2026-05-04 14:44 37.92991 -1.49753 35897 ft 513 kts 66°
2026-05-04 14:44 37.96007 -1.41603 35899 ft 513 kts 66°
2026-05-04 14:45 37.99035 -1.33397 35886 ft 513 kts 66°
2026-05-04 14:45 38.02052 -1.25207 35863 ft 512 kts 66°
2026-05-04 14:46 38.04548 -1.18407 35881 ft 512 kts 66°
2026-05-04 14:46 38.07549 -1.10214 35887 ft 512 kts 66°
2026-05-04 14:47 38.10548 -1.02004 35889 ft 512 kts 66°
2026-05-04 14:47 38.13538 -0.93796 35898 ft 512 kts 66°
2026-05-04 14:48 38.16524 -0.85573 35906 ft 511 kts 66°
2026-05-04 14:48 38.19495 -0.77358 35916 ft 511 kts 67°
2026-05-04 14:49 38.22461 -0.69152 35929 ft 511 kts 66°
2026-05-04 14:49 38.25423 -0.60937 35932 ft 511 kts 67°
2026-05-04 14:50 38.28222 -0.52696 35927 ft 510 kts 70°
2026-05-04 14:50 38.30891 -0.44337 35930 ft 509 kts 70°
2026-05-04 14:51 38.33551 -0.35978 35930 ft 509 kts 70°
2026-05-04 14:51 38.36225 -0.27620 35936 ft 509 kts 69°
2026-05-04 14:52 38.38993 -0.19311 35939 ft 509 kts 69°
2026-05-04 14:52 38.41759 -0.11002 35941 ft 509 kts 69°
2026-05-04 14:53 38.44496 -0.02746 35934 ft 509 kts 69°
2026-05-04 14:53 38.47210 0.05596 35944 ft 507 kts 69°
2026-05-04 14:54 38.49861 0.13911 35938 ft 505 kts 69°
2026-05-04 14:54 38.52518 0.22205 35940 ft 505 kts 69°
2026-05-04 14:55 38.55153 0.30467 35941 ft 505 kts 69°
2026-05-04 14:55 38.57794 0.38781 35941 ft 505 kts 69°
2026-05-04 14:56 38.60430 0.47099 35946 ft 505 kts 69°
2026-05-04 14:56 38.63074 0.55434 35950 ft 505 kts 69°
2026-05-04 14:57 38.65692 0.63760 35948 ft 505 kts 69°
2026-05-04 14:57 38.68313 0.72103 35951 ft 505 kts 70°
2026-05-04 14:58 38.70920 0.80383 35950 ft 504 kts 70°
2026-05-04 14:58 38.73527 0.88714 35959 ft 503 kts 70°
2026-05-04 14:59 38.76125 0.97038 35960 ft 504 kts 70°
2026-05-04 15:00 38.80018 1.09571 35960 ft 503 kts 70°
2026-05-04 15:00 38.82599 1.17916 35960 ft 503 kts 70°
2026-05-04 15:01 38.86408 1.30277 35956 ft 504 kts 70°
2026-05-04 15:01 38.88973 1.38637 35959 ft 505 kts 70°
2026-05-04 15:02 38.91542 1.47016 35960 ft 506 kts 70°
2026-05-04 15:02 38.94058 1.55453 35960 ft 506 kts 71°
2026-05-04 15:03 38.96542 1.63927 35960 ft 505 kts 71°
2026-05-04 15:03 38.99026 1.72389 35961 ft 505 kts 71°
2026-05-04 15:04 39.01496 1.80822 35961 ft 506 kts 71°
2026-05-04 15:04 39.03969 1.89269 35961 ft 506 kts 71°
2026-05-04 15:05 39.06434 1.97766 35959 ft 506 kts 71°
2026-05-04 15:05 39.08898 2.06258 35959 ft 504 kts 71°
2026-05-04 15:06 39.11344 2.14716 35957 ft 503 kts 71°
2026-05-04 15:07 39.14504 2.25667 35952 ft 503 kts 71°
2026-05-04 15:07 39.16930 2.34121 35959 ft 503 kts 71°
2026-05-04 15:08 39.19356 2.42599 35960 ft 503 kts 71°
2026-05-04 15:08 39.21773 2.51073 35960 ft 504 kts 71°
2026-05-04 15:09 39.24182 2.59540 35960 ft 503 kts 71°
2026-05-04 15:09 39.26586 2.68027 35960 ft 503 kts 71°
2026-05-04 15:10 39.30172 2.80779 35953 ft 503 kts 71°
2026-05-04 15:11 39.33737 2.93461 35960 ft 502 kts 71°
2026-05-04 15:11 39.36117 3.01955 35960 ft 502 kts 71°
2026-05-04 15:12 39.38491 3.10448 35961 ft 501 kts 71°
2026-05-04 15:12 39.40852 3.18934 35958 ft 501 kts 71°
2026-05-04 15:13 39.43464 3.27287 35955 ft 502 kts 61°
2026-05-04 15:13 39.46989 3.35007 35962 ft 501 kts 58°
2026-05-04 15:14 39.50581 3.42752 35959 ft 500 kts 59°
2026-05-04 15:14 39.54145 3.50524 35959 ft 499 kts 59°
2026-05-04 15:15 39.57677 3.58249 35969 ft 498 kts 59°
2026-05-04 15:15 39.61200 3.65935 35970 ft 498 kts 59°
2026-05-04 15:16 39.66486 3.77558 35960 ft 499 kts 59°
2026-05-04 15:17 39.71771 3.89206 35960 ft 499 kts 59°
2026-05-04 15:17 39.77042 4.00882 35959 ft 499 kts 59°
2026-05-04 15:18 39.80546 4.08666 35960 ft 499 kts 59°
2026-05-04 15:19 39.85794 4.20364 35961 ft 499 kts 59°
2026-05-04 15:19 39.91022 4.32015 35960 ft 498 kts 59°
2026-05-04 15:20 39.94515 4.39820 35960 ft 498 kts 59°
2026-05-04 15:20 39.97997 4.47621 35960 ft 498 kts 59°
2026-05-04 15:21 40.01471 4.55433 35958 ft 497 kts 59°
2026-05-04 15:22 40.06790 4.67096 35955 ft 499 kts 52°
2026-05-04 15:22 40.09096 4.70373 35954 ft 494 kts 37°
2026-05-04 15:22 40.14820 4.75171 35966 ft 488 kts 25°
2026-05-04 15:23 40.20717 4.79605 35966 ft 489 kts 26°
2026-05-04 15:23 40.26587 4.84125 35970 ft 490 kts 26°
2026-05-04 15:24 40.38307 4.93229 35970 ft 490 kts 26°
2026-05-04 15:25 40.44166 4.97789 35971 ft 489 kts 26°
2026-05-04 15:26 40.52945 5.04637 35970 ft 488 kts 26°
2026-05-04 15:26 40.61661 5.11460 35970 ft 489 kts 26°
2026-05-04 15:27 40.70432 5.18348 35976 ft 489 kts 26°
2026-05-04 15:28 40.79178 5.25257 35984 ft 489 kts 26°
2026-05-04 15:29 40.87942 5.32174 36004 ft 489 kts 26°
2026-05-04 15:30 41.08329 5.48353 36001 ft 489 kts 26°
2026-05-04 15:31 41.17071 5.55336 36001 ft 489 kts 26°
2026-05-04 15:32 41.30653 5.66226 36009 ft 488 kts 26°
2026-05-04 15:34 41.45191 5.77941 36012 ft 488 kts 26°
2026-05-04 15:34 41.53905 5.84985 36010 ft 488 kts 26°
2026-05-04 15:35 41.62564 5.92042 36022 ft 487 kts 26°
2026-05-04 15:36 41.71269 5.99089 36019 ft 487 kts 26°
2026-05-04 15:36 41.77067 6.03823 36019 ft 487 kts 26°
2026-05-04 15:37 41.82848 6.08560 36020 ft 487 kts 26°
2026-05-04 15:37 41.88641 6.13302 36021 ft 487 kts 26°
2026-05-04 15:38 41.94382 6.18030 36028 ft 488 kts 27°
2026-05-04 15:38 42.00167 6.22786 36042 ft 487 kts 26°
2026-05-04 15:39 42.05940 6.27561 36044 ft 487 kts 26°
2026-05-04 15:40 42.14611 6.34733 36050 ft 487 kts 26°
2026-05-04 15:40 42.20372 6.39512 36051 ft 486 kts 27°
2026-05-04 15:41 42.26132 6.44306 36054 ft 486 kts 27°
2026-05-04 15:41 42.31879 6.49096 36052 ft 485 kts 27°
2026-05-04 15:42 42.37582 6.53863 36054 ft 485 kts 27°
2026-05-04 15:42 42.43317 6.58659 36052 ft 484 kts 27°
2026-05-04 15:43 42.49039 6.63465 36058 ft 483 kts 27°
2026-05-04 15:43 42.54762 6.68278 36055 ft 483 kts 27°
2026-05-04 15:44 42.60468 6.73082 36049 ft 482 kts 27°
2026-05-04 15:44 42.66127 6.77865 36042 ft 482 kts 27°
2026-05-04 15:45 42.71819 6.82675 36052 ft 481 kts 27°
2026-05-04 15:45 42.77498 6.87478 36049 ft 481 kts 27°
2026-05-04 15:46 42.83178 6.92309 36055 ft 480 kts 27°
2026-05-04 15:46 42.88838 6.97121 36051 ft 480 kts 27°
2026-05-04 15:47 42.94497 7.01957 36050 ft 479 kts 27°
2026-05-04 15:47 43.00150 7.06793 36057 ft 479 kts 27°
2026-05-04 15:48 43.05798 7.11645 36044 ft 479 kts 27°
2026-05-04 15:48 43.14263 7.18910 36048 ft 478 kts 27°
2026-05-04 15:49 43.19848 7.23735 36051 ft 478 kts 27°
2026-05-04 15:49 43.25478 7.28584 36061 ft 477 kts 27°
2026-05-04 15:50 43.31080 7.33427 36054 ft 476 kts 27°
2026-05-04 15:50 43.36688 7.38300 36057 ft 476 kts 28°
2026-05-04 15:51 43.42283 7.43176 36055 ft 475 kts 27°
2026-05-04 15:51 43.45000 7.45535 36054 ft 475 kts 27°
2026-05-04 15:52 43.48601 7.48681 36062 ft 474 kts 28°
2026-05-04 15:52 43.54111 7.53487 35649 ft 467 kts 28°
2026-05-04 15:53 43.56840 7.55887 35111 ft 464 kts 28°
2026-05-04 15:53 43.59556 7.58278 34506 ft 463 kts 28°
2026-05-04 15:53 43.62271 7.60660 33909 ft 462 kts 28°
2026-05-04 15:53 43.64979 7.63031 33321 ft 461 kts 28°
2026-05-04 15:54 43.67648 7.65380 32763 ft 459 kts 28°
2026-05-04 15:54 43.70326 7.67762 32183 ft 458 kts 28°
2026-05-04 15:54 43.73013 7.70145 31579 ft 457 kts 28°
2026-05-04 15:54 43.75682 7.72521 30989 ft 455 kts 28°
2026-05-04 15:55 43.78340 7.74881 30415 ft 453 kts 28°
2026-05-04 15:55 43.80978 7.77231 29835 ft 450 kts 28°
2026-05-04 15:55 43.83614 7.79557 29252 ft 448 kts 28°
2026-05-04 15:55 43.86229 7.81880 28674 ft 445 kts 29°
2026-05-04 15:56 43.88825 7.84190 28096 ft 440 kts 29°
2026-05-04 15:56 43.91382 7.86466 27547 ft 435 kts 29°
2026-05-04 15:56 43.93921 7.88715 26980 ft 431 kts 29°
2026-05-04 15:56 43.96441 7.90944 26415 ft 426 kts 30°
2026-05-04 15:57 43.98932 7.93131 25889 ft 421 kts 30°
2026-05-04 15:57 44.01394 7.95291 25354 ft 416 kts 30°
2026-05-04 15:57 44.03816 7.97428 24860 ft 410 kts 30°
2026-05-04 15:57 44.06210 7.99563 24330 ft 406 kts 31°
2026-05-04 15:58 44.08577 8.01676 23800 ft 402 kts 31°
2026-05-04 15:58 44.10915 8.03766 23275 ft 397 kts 31°
2026-05-04 15:58 44.13215 8.05861 22785 ft 392 kts 32°
2026-05-04 15:58 44.15484 8.07928 22285 ft 387 kts 31°
2026-05-04 15:59 44.17737 8.09965 21769 ft 384 kts 31°
2026-05-04 15:59 44.19970 8.11974 21265 ft 380 kts 31°
2026-05-04 15:59 44.22166 8.13927 20781 ft 377 kts 31°
2026-05-04 15:59 44.24385 8.15905 20297 ft 372 kts 31°
2026-05-04 16:00 44.26526 8.17824 19831 ft 368 kts 31°
2026-05-04 16:00 44.28674 8.19743 19374 ft 364 kts 31°
2026-05-04 16:00 44.30793 8.21638 18935 ft 359 kts 31°
2026-05-04 16:00 44.32882 8.23520 18503 ft 355 kts 32°
2026-05-04 16:01 44.34932 8.25384 18072 ft 350 kts 32°
2026-05-04 16:01 44.36963 8.27228 17661 ft 349 kts 32°
2026-05-04 16:01 44.38998 8.29074 17256 ft 347 kts 32°
2026-05-04 16:01 44.41023 8.30908 16852 ft 346 kts 32°
2026-05-04 16:02 44.43046 8.32740 16453 ft 346 kts 32°
2026-05-04 16:02 44.45065 8.34568 16054 ft 346 kts 32°
2026-05-04 16:02 44.49107 8.38241 15286 ft 346 kts 33°
2026-05-04 16:03 44.51127 8.40076 14894 ft 346 kts 33°
2026-05-04 16:03 44.53149 8.41917 14478 ft 347 kts 33°
2026-05-04 16:03 44.55178 8.43756 14052 ft 345 kts 33°
2026-05-04 16:03 44.57153 8.45546 13642 ft 340 kts 33°
2026-05-04 16:04 44.59121 8.47336 13244 ft 334 kts 34°
2026-05-04 16:04 44.62947 8.50827 12480 ft 322 kts 34°
2026-05-04 16:04 44.64811 8.52532 12075 ft 318 kts 34°
2026-05-04 16:05 44.66666 8.54234 11671 ft 319 kts 34°
2026-05-04 16:05 44.68530 8.55942 11288 ft 320 kts 34°
2026-05-04 16:05 44.72263 8.59368 10522 ft 320 kts 35°
2026-05-04 16:06 44.74106 8.61061 10231 ft 312 kts 35°
2026-05-04 16:06 44.78782 8.65356 9332 ft 297 kts 35°
2026-05-04 16:07 44.81102 8.67493 8806 ft 297 kts 35°
2026-05-04 16:07 44.86208 8.72202 7661 ft 289 kts 35°
2026-05-04 16:08 44.87888 8.73756 7300 ft 289 kts 35°
2026-05-04 16:08 44.92865 8.78360 6198 ft 284 kts 34°
2026-05-04 16:09 44.96140 8.81395 5467 ft 280 kts 34°
2026-05-04 16:09 44.99303 8.84345 5041 ft 261 kts 34°
2026-05-04 16:10 45.02201 8.87029 4992 ft 241 kts 35°
2026-05-04 16:11 45.06868 8.88347 4582 ft 234 kts 347°
2026-05-04 16:11 45.08462 8.87848 4460 ft 234 kts 348°
2026-05-04 16:12 45.13231 8.86473 4269 ft 233 kts 348°
2026-05-04 16:12 45.17995 8.85166 4100 ft 232 kts 349°
2026-05-04 16:13 45.21168 8.84299 3950 ft 231 kts 348°
2026-05-04 16:13 45.24332 8.83416 3932 ft 232 kts 348°
2026-05-04 16:14 45.27135 8.82642 3937 ft 232 kts 349°
2026-05-04 16:14 45.30289 8.81778 3947 ft 232 kts 349°
2026-05-04 16:15 45.35028 8.80490 3961 ft 230 kts 349°
2026-05-04 16:16 45.38190 8.79666 3826 ft 232 kts 352°
2026-05-04 16:16 45.42895 8.78795 3011 ft 225 kts 352°
2026-05-04 16:17 45.45843 8.78097 2931 ft 211 kts 349°
2026-05-04 16:18 45.49810 8.76993 2947 ft 166 kts 348°
2026-05-04 16:18 45.50941 8.76690 2821 ft 164 kts 348°
2026-05-04 16:19 45.54244 8.75773 2209 ft 146 kts 348°
2026-05-04 16:19 45.55874 8.75323 1849 ft 141 kts 348°
2026-05-04 16:20 45.58760 8.74537 1302 ft 140 kts 349°
2026-05-04 16:20 45.60654 8.74001 918 ft 138 kts 348°
2026-05-04 16:21 45.62803 8.73410 731 ft 40 kts 349°
2026-05-04 16:22 45.63216 8.73156 731 ft 28 kts 314°
2026-05-04 16:22 45.63374 8.72393 732 ft 29 kts 256°
2026-05-04 16:23 45.63152 8.72007 731 ft 18 kts 169°
2026-05-04 16:24 45.62566 8.72168 729 ft 25 kts 169°
2026-05-04 16:25 45.62365 8.72139 731 ft 12 kts 253°
2026-05-04 16:26 45.62222 8.71794 729 ft 0 kts 169°
2026-05-04 16:26 45.62220 8.71795 729 ft 0 kts 168°